Wind_Speed
28 28 27 27 26 26 25 24 24 23 23 24 25 26 28 31 33 34 35 35 35 34 34 34 33 33 32 32 32 32 33 34 35 35 35 35 34 32 30 30 29 27
28 28 28 27 26 26 26 25 25 24 24 24 24 25 27 29 32 34 36 36 36 35 35 34 34 34 34 34 34 35 35 35 36 36 36 37 36 34 33 32 31 28
29 28 28 27 27 26 26 25 25 25 25 25 24 25 26 28 30 33 35 36 36 35 35 35 35 35 34 35 35 36 36 36 36 37 37 38 38 36 35 34 32 30
29 29 28 27 27 26 26 26 25 25 25 25 25 26 26 27 28 30 33 36 36 35 36 35 36 36 36 36 36 35 36 37 37 38 38 39 38 37 36 35 32 31
29 30 29 28 27 26 26 26 26 26 26 26 26 27 27 28 28 29 31 34 36 36 36 36 36 36 36 38 37 36 37 37 36 36 37 37 37 36 36 35 33 31
30 30 30 29 27 26 27 27 26 27 27 27 27 27 28 28 29 30 30 32 34 36 36 36 36 36 36 36 36 36 36 36 36 37 37 38 38 37 37 36 34 32
31 30 30 29 28 27 26 27 27 28 28 28 28 28 28 29 29 30 30 30 31 33 34 35 35 35 35 34 34 35 36 37 37 37 38 39 40 39 38 37 35 32
32 31 30 30 29 28 27 27 27 28 28 28 28 28 28 29 29 29 28 29 29 31 32 33 34 35 34 34 35 36 37 37 37 37 38 39 40 40 39 38 36 33
33 32 31 30 30 29 28 27 27 28 28 28 28 28 28 28 29 28 27 27 29 30 32 33 34 34 35 35 36 37 37 37 38 39 39 40 40 40 40 39 36 34
34 33 32 31 30 30 29 28 28 28 28 28 28 28 28 28 28 28 27 27 29 31 33 34 34 34 35 35 36 37 37 37 39 40 40 40 40 40 40 40 40 38
34 33 33 32 31 30 29 28 28 29 29 29 29 29 28 28 28 28 27 28 30 32 33 34 35 35 35 35 36 38 38 39 40 40 41 41 41 42 43 44 43 40
35 34 33 32 31 30 29 28 29 29 30 30 30 30 29 28 27 27 27 28 30 33 34 34 34 34 35 36 37 38 39 40 40 40 40 40 41 42 42 41 39 36
35 34 34 33 32 30 29 29 30 30 31 30 30 30 29 28 27 26 27 28 31 34 35 35 35 35 36 37 38 39 39 39 39 39 38 38 38 37 37 36 36 36
35 34 33 32 31 30 29 29 31 31 31 30 29 29 28 27 27 27 28 30 32 35 37 37 38 37 37 38 38 39 39 39 38 37 36 35 35 34 34 35 36 36
35 34 33 31 30 30 30 30 31 31 32 31 29 28 28 27 27 27 29 31 34 36 38 38 37 37 37 37 38 38 38 37 36 35 34 34 34 34 34 35 35 35
35 34 32 30 30 30 30 30 31 31 31 31 29 27 27 27 27 27 29 31 34 36 38 37 35 34 35 36 37 37 36 36 35 34 34 33 34 34 34 34 35 36
35 33 31 30 29 29 30 30 30 30 30 29 27 26 26 27 27 27 28 31 34 35 35 33 31 31 33 34 35 35 35 35 34 34 34 33 33 33 33 34 34 35
34 33 31 30 29 29 30 29 29 30 29 27 26 26 25 26 26 27 29 31 32 32 30 29 28 30 31 32 33 33 33 33 33 32 32 31 31 31 32 33 34 34
33 32 31 30 30 30 30 29 29 29 28 27 26 25 24 25 26 27 29 29 29 28 26 25 26 28 29 30 31 31 31 31 30 29 29 29 30 31 32 33 33 33
33 32 31 30 30 30 30 30 29 29 28 28 26 25 24 25 26 28 28 27 26 24 23 23 25 27 28 29 29 29 28 28 28 28 29 30 31 31 32 32 31 30
32 32 31 31 31 31 31 31 30 29 28 27 26 25 25 26 27 27 27 26 23 22 21 22 24 25 27 27 27 27 26 26 27 28 30 31 31 30 30 29 27 25
32 31 31 31 31 31 31 31 30 29 28 27 26 25 25 26 26 26 25 23 22 21 21 22 23 24 25 25 24 25 25 27 29 30 30 30 29 28 26 25 24 24
32 31 31 30 31 31 31 30 30 29 27 25 24 23 23 23 24 24 23 22 21 20 20 21 22 23 23 23 23 25 27 29 30 30 29 28 26 25 24 24 24 24
31 31 30 30 30 31 31 30 29 27 25 23 22 21 21 22 23 24 23 21 20 20 20 21 21 21 22 23 25 27 28 29 28 27 27 25 24 23 23 24 24 25
31 31 30 30 30 30 31 29 27 25 24 23 22 21 21 22 23 24 23 22 20 20 21 21 21 22 23 25 27 27 27 27 27 26 25 24 23 23 24 25 25 26
32 31 30 30 30 30 30 28 26 24 23 23 22 22 22 23 23 23 23 22 22 21 21 21 22 23 25 26 27 27 27 26 25 25 24 24 24 24 25 26 27 28
Wind_Direction
315 314 311 309 305 301 295 289 286 284 284 285 285 280 272 264 259 254 251 249 248 247 245 245 244 244 244 245 245 246 247 247 246 243 239 233 228 226 224 222 222 225
314 313 311 308 305 301 296 290 286 283 282 282 284 284 279 271 265 259 255 252 250 249 247 246 245 244 244 244 244 244 245 245 244 241 238 233 229 227 225 223 223 227
314 313 310 308 304 301 296 291 286 282 281 281 281 282 282 278 272 266 260 255 252 250 248 246 245 243 243 244 244 245 246 245 243 240 236 233 230 228 225 224 225 230
314 313 310 307 303 300 296 291 287 282 279 279 280 280 280 279 276 271 265 260 255 252 249 248 246 245 244 244 244 245 246 245 242 237 234 231 229 228 226 226 228 232
313 313 310 307 301 298 296 292 288 283 279 278 279 279 279 278 277 274 269 264 259 255 253 251 249 247 245 244 243 243 245 246 244 240 236 234 232 230 229 229 231 235
312 312 310 306 301 297 295 293 290 285 281 278 277 278 279 278 277 274 270 266 261 258 256 254 252 250 248 248 247 246 245 246 246 244 241 238 236 234 232 231 233 239
311 311 309 305 300 296 293 292 290 287 283 279 278 278 279 279 278 275 271 267 262 259 257 257 255 251 249 249 248 248 247 246 246 244 242 241 240 238 236 234 237 246
309 309 307 304 299 294 291 289 289 287 284 281 279 279 280 280 279 276 272 267 263 259 257 258 256 252 248 247 246 247 248 248 247 245 243 242 242 241 239 238 241 250
307 307 305 302 298 293 289 288 287 286 284 281 280 279 280 281 280 276 271 266 262 260 258 257 257 253 248 245 245 246 247 248 248 247 244 243 242 242 242 242 246 255
305 305 303 301 297 293 289 287 285 284 283 281 280 279 279 281 280 277 271 264 259 257 256 257 256 252 247 244 243 245 245 246 246 246 246 244 243 242 243 246 252 260
303 302 301 299 296 292 289 288 285 284 283 282 280 278 278 279 280 278 274 265 257 254 254 255 254 251 246 242 242 243 244 244 245 246 247 245 244 244 246 250 255 258
302 301 300 299 295 290 288 287 286 284 283 282 281 278 277 278 279 279 275 267 259 254 254 255 254 251 246 242 241 242 243 244 245 247 248 249 250 251 252 254 254 254
301 301 300 298 294 289 287 287 286 285 283 281 280 278 276 276 277 278 275 269 263 258 256 256 256 252 246 241 240 241 242 244 246 248 250 251 253 254 255 254 253 254
300 301 299 297 292 289 287 286 286 285 283 281 279 277 276 275 275 277 275 271 265 260 257 256 255 253 247 242 240 240 242 244 247 248 249 250 251 252 253 254 255 257
300 301 299 295 291 289 287 286 285 283 282 281 280 277 276 274 274 275 276 273 266 261 257 255 255 254 249 244 241 240 241 243 245 247 247 248 250 252 254 256 257 258
299 300 298 293 289 288 288 286 285 282 282 283 283 280 277 273 271 273 277 275 269 263 258 257 256 255 252 248 244 242 242 243 245 247 248 250 253 255 256 257 257 258
298 298 296 292 289 288 287 286 285 283 282 281 282 281 279 274 271 273 277 276 270 264 260 259 259 256 253 250 247 246 245 245 247 249 251 254 256 257 257 258 258 260
297 296 294 290 288 287 286 285 284 283 281 280 280 280 278 275 273 275 276 273 267 262 259 259 259 256 254 251 248 247 246 247 249 251 253 255 257 257 258 259 261 264
295 294 292 289 287 287 286 285 284 283 281 279 278 278 276 275 276 276 274 269 264 259 258 259 258 256 254 251 249 247 247 249 251 252 254 256 256 257 259 262 265 267
294 292 290 288 287 287 286 285 284 282 280 279 277 277 276 275 276 275 272 266 260 255 255 257 257 256 254 251 250 249 249 250 252 253 255 257 258 260 263 265 266 265
292 289 287 286 286 286 286 286 285 283 282 279 276 273 272 272 274 273 268 261 255 252 252 255 255 254 252 251 250 250 250 252 254 255 257 258 260 263 264 264 263 261
291 288 285 284 285 285 285 285 286 285 283 279 275 270 268 271 273 271 265 257 251 249 250 252 252 251 250 250 249 250 251 253 255 256 258 260 262 262 261 260 260 261
291 287 284 283 283 284 284 284 285 285 283 279 275 271 268 268 269 267 260 252 247 246 248 250 249 248 247 247 248 249 251 253 255 258 259 260 259 258 258 259 262 264
290 286 284 283 283 283 283 283 284 283 281 278 274 270 267 265 264 262 255 247 242 242 244 245 243 242 242 244 247 250 253 255 257 258 257 256 257 258 261 263 265 268
289 285 283 283 283 282 281 282 282 280 279 277 274 271 267 264 261 257 250 242 237 237 239 239 237 238 240 244 249 252 255 256 256 255 255 256 259 262 264 266 268 270
287 284 282 282 281 280 279 279 279 279 279 278 275 272 268 263 258 251 244 238 233 231 233 233 233 237 241 246 251 253 254 253 253 254 256 258 261 264 266 269 271 272
Height
3034 3032 3031 3030 3029 3028 3028 3027 3026 3025 3024 3024 3024 3024 3024 3023 3023 3023 3023 3023 3024 3025 3025 3026 3027 3028 3029 3030 3032 3033 3034 3035 3036 3037 3038 3039 3040 3041 3042 3042 3042 3043
3031 3029 3028 3027 3026 3025 3024 3023 3022 3021 3021 3020 3020 3020 3020 3020 3019 3019 3019 3019 3020 3020 3021 3022 3023 3024 3025 3026 3027 3028 3029 3030 3031 3032 3034 3035 3036 3037 3038 3038 3039 3039
3028 3026 3025 3023 3022 3021 3020 3019 3018 3017 3017 3016 3016 3016 3016 3016 3016 3016 3015 3015 3016 3016 3017 3018 3018 3019 3020 3021 3023 3024 3025 3026 3027 3029 3030 3030 3032 3033 3034 3035 3035 3035
3025 3023 3022 3020 3019 3017 3016 3015 3014 3013 3012 3012 3011 3012 3011 3012 3012 3012 3012 3012 3012 3013 3013 3013 3014 3014 3016 3016 3017 3019 3021 3021 3022 3024 3025 3026 3027 3029 3030 3031 3031 3032
3023 3021 3019 3017 3016 3014 3013 3011 3010 3009 3008 3008 3007 3007 3007 3007 3007 3007 3008 3008 3008 3009 3009 3010 3010 3010 3011 3012 3013 3015 3016 3016 3018 3020 3021 3023 3024 3025 3026 3027 3028 3029
3019 3018 3016 3014 3013 3011 3010 3008 3007 3006 3005 3004 3003 3003 3002 3002 3003 3003 3003 3004 3004 3005 3006 3006 3007 3007 3008 3009 3010 3011 3012 3013 3015 3016 3018 3020 3021 3022 3023 3024 3025 3025
3016 3014 3013 3011 3009 3008 3006 3005 3003 3002 3001 3000 2999 2999 2998 2998 2998 2998 2999 2999 3000 3001 3002 3003 3003 3003 3004 3005 3006 3008 3009 3009 3011 3012 3014 3016 3017 3018 3019 3020 3021 3021
3012 3010 3009 3007 3006 3004 3003 3001 3000 2998 2997 2996 2995 2995 2995 2994 2994 2994 2994 2995 2996 2997 2998 2998 2999 2999 3000 3001 3003 3004 3005 3005 3006 3008 3009 3011 3012 3014 3015 3016 3017 3017
3008 3006 3004 3003 3001 3000 2998 2997 2996 2995 2993 2992 2991 2991 2991 2990 2990 2990 2990 2991 2992 2993 2994 2994 2994 2995 2996 2997 2998 2999 3000 3001 3002 3003 3005 3006 3008 3010 3011 3012 3013 3013
3004 3002 3000 2998 2997 2995 2994 2993 2992 2990 2989 2988 2988 2987 2987 2986 2986 2986 2986 2987 2988 2989 2990 2990 2990 2990 2991 2992 2994 2995 2996 2997 2998 2999 3000 3002 3003 3005 3007 3008 3009 3009
2999 2997 2995 2994 2992 2991 2990 2989 2988 2986 2985 2984 2984 2983 2983 2982 2982 2982 2983 2983 2984 2985 2986 2986 2986 2986 2987 2988 2989 2991 2992 2993 2994 2995 2996 2998 2999 3001 3002 3003 3004 3005
2995 2993 2991 2989 2988 2987 2985 2984 2983 2982 2981 2980 2979 2979 2978 2978 2978 2979 2979 2979 2980 2981 2981 2981 2982 2982 2982 2984 2985 2986 2988 2989 2990 2992 2993 2994 2995 2996 2998 2999 3000 3001
2990 2989 2987 2985 2984 2982 2981 2980 2979 2978 2977 2976 2975 2974 2974 2974 2974 2975 2975 2975 2976 2976 2977 2977 2977 2978 2978 2979 2980 2982 2983 2985 2986 2987 2989 2990 2991 2992 2993 2994 2995 2996
2986 2984 2983 2981 2979 2978 2977 2976 2975 2974 2972 2972 2971 2970 2970 2970 2970 2970 2970 2971 2971 2972 2972 2972 2972 2973 2974 2975 2976 2978 2979 2981 2982 2983 2984 2986 2987 2988 2989 2990 2991 2992
2981 2980 2978 2977 2975 2974 2973 2971 2970 2969 2968 2967 2966 2966 2966 2966 2966 2966 2966 2967 2967 2967 2967 2968 2968 2969 2970 2971 2972 2973 2975 2976 2978 2979 2980 2982 2983 2984 2985 2986 2987 2987
2976 2975 2973 2972 2971 2969 2968 2967 2966 2964 2963 2963 2962 2962 2962 2961 2961 2962 2962 2962 2962 2962 2963 2963 2964 2966 2967 2968 2969 2970 2972 2973 2974 2976 2977 2978 2979 2980 2981 2981 2982 2982
2971 2970 2968 2967 2966 2965 2963 2962 2961 2960 2959 2958 2958 2958 2957 2957 2957 2957 2958 2958 2958 2958 2959 2960 2961 2962 2963 2965 2966 2967 2968 2970 2971 2972 2973 2974 2975 2976 2976 2977 2977 2978
2967 2965 2964 2962 2961 2960 2959 2957 2956 2955 2954 2954 2954 2954 2953 2953 2953 2953 2953 2953 2954 2954 2955 2956 2958 2959 2960 2961 2962 2964 2965 2966 2967 2968 2969 2970 2971 2972 2972 2972 2973 2973
2962 2961 2959 2958 2957 2955 2954 2953 2952 2951 2950 2949 2949 2949 2949 2949 2949 2949 2949 2949 2950 2951 2952 2953 2954 2955 2957 2958 2959 2960 2962 2963 2964 2965 2966 2966 2967 2967 2968 2968 2968 2968
2958 2956 2955 2954 2952 2951 2950 2949 2948 2946 2945 2945 2944 2945 2945 2945 2945 2945 2945 2945 2946 2947 2948 2950 2951 2952 2953 2955 2956 2957 2958 2959 2961 2961 2962 2963 2963 2963 2964 2964 2964 2964
2954 2953 2952 2950 2949 2947 2946 2945 2943 2942 2941 2940 2940 2940 2941 2941 2941 2941 2941 2941 2942 2943 2945 2946 2948 2949 2950 2952 2953 2954 2955 2956 2957 2958 2958 2959 2959 2959 2960 2960 2960 2960
2950 2949 2948 2947 2945 2944 2942 2941 2939 2938 2937 2936 2936 2936 2936 2937 2937 2937 2937 2938 2939 2940 2941 2943 2944 2945 2947 2948 2950 2951 2952 2953 2954 2954 2955 2955 2955 2956 2956 2956 2956 2956
2947 2946 2944 2943 2942 2940 2939 2937 2935 2934 2933 2932 2932 2932 2932 2933 2933 2933 2934 2934 2935 2936 2938 2939 2941 2942 2944 2945 2947 2948 2949 2950 2950 2951 2951 2951 2952 2952 2952 2952 2952 2952
2943 2942 2940 2939 2938 2937 2935 2933 2931 2930 2929 2928 2928 2928 2928 2929 2929 2930 2930 2931 2932 2933 2934 2936 2937 2939 2940 2942 2943 2945 2946 2946 2947 2947 2947 2948 2948 2948 2948 2948 2948 2948
2939 2937 2936 2935 2934 2933 2931 2929 2928 2926 2925 2925 2924 2924 2925 2925 2925 2926 2926 2927 2928 2929 2931 2932 2934 2936 2937 2939 2940 2941 2942 2943 2943 2943 2944 2944 2944 2945 2945 2945 2945 2945
2934 2933 2932 2931 2929 2928 2927 2925 2924 2923 2922 2921 2921 2921 2921 2921 2922 2922 2923 2923 2925 2926 2928 2929 2931 2932 2934 2935 2937 2938 2938 2939 2939 2940 2940 2940 2941 2941 2941 2941 2941 2941